Temp
13 13 14 14 14 14 14 13 13 13 13 13 13 12 12 11 11 11 11 11 11 12 12 12 12 12 11 11 11 11 11 11 11 11 12 12 12 12 12 12 12 13
13 13 14 14 13 13 13 13 13 13 13 13 13 13 12 12 11 11 11 11 11 11 12 12 12 12 12 11 11 11 11 11 11 11 11 12 12 12 12 12 12 12
13 13 13 13 13 13 12 12 12 12 12 13 13 13 12 12 11 11 11 11 11 11 11 11 12 12 12 12 11 11 11 11 11 11 11 11 11 11 11 12 12 12
13 13 13 13 13 12 12 12 12 12 12 12 13 13 13 12 12 11 11 11 11 11 11 11 12 12 12 12 12 12 11 11 11 12 11 11 11 11 11 11 12 12
13 13 13 13 12 12 12 12 12 12 12 12 12 13 12 12 12 12 11 11 11 11 11 11 12 12 12 12 12 12 12 12 12 12 12 11 11 11 11 11 12 12
13 13 13 12 12 12 12 12 12 12 12 12 12 12 12 12 12 12 12 11 11 11 11 12 12 12 12 12 12 12 12 12 13 12 12 12 11 11 11 11 11 12
13 12 12 12 12 12 12 12 12 12 12 12 12 12 12 12 13 12 12 12 12 12 12 12 12 13 13 13 12 12 12 12 12 12 12 12 11 11 11 11 11 11
13 12 12 12 12 12 12 12 12 12 13 13 12 12 12 13 13 13 12 12 12 12 13 13 13 13 13 13 12 12 12 12 12 12 12 12 12 12 11 11 11 11
13 12 12 12 12 12 12 12 12 12 12 13 12 12 13 13 13 13 12 12 12 13 13 13 13 13 13 13 12 12 12 12 12 12 12 12 12 12 12 12 11 11
13 12 12 12 12 12 12 12 11 12 12 12 13 13 13 13 13 13 13 12 12 12 13 13 13 13 13 13 12 12 12 12 12 12 12 12 12 12 12 12 12 11
12 12 12 12 12 12 12 12 11 11 12 12 13 13 13 13 13 13 13 12 12 12 12 13 12 12 13 13 12 12 12 12 12 12 12 12 12 12 12 12 12 12
12 12 12 12 12 11 11 11 11 12 12 12 12 13 13 13 14 13 13 12 12 12 12 12 12 12 13 12 12 12 12 12 12 12 12 12 12 12 12 12 12 12
12 11 11 12 11 11 11 11 12 12 13 12 12 13 13 13 13 13 13 12 12 12 12 12 12 12 12 12 12 12 12 12 11 11 11 11 11 11 11 11 11 11
12 11 11 11 11 11 11 12 12 12 12 12 12 13 13 13 13 13 13 12 12 12 11 11 11 11 12 11 11 11 11 11 11 11 11 11 11 11 11 11 11 11
11 11 11 11 11 11 11 12 12 12 12 12 13 13 13 13 13 13 12 12 12 11 11 11 11 11 11 11 11 11 11 11 11 11 11 11 11 11 11 11 11 11
11 11 11 11 11 11 11 12 12 12 12 12 13 13 13 13 13 12 12 11 11 11 11 11 11 11 11 11 11 11 11 11 11 11 11 10 10 10 10 10 10 10
10 10 11 11 11 11 11 11 12 12 12 12 12 12 13 13 13 12 11 11 11 11 11 11 11 11 11 10 11 11 11 11 11 11 10 10 10 10 10 10 10 10
10 10 10 11 11 11 11 11 11 12 12 12 12 12 13 13 12 12 11 11 11 11 11 11 11 11 11 10 10 11 11 11 11 11 10 10 10 10 10 10 10 10
9 10 10 10 10 10 11 11 11 11 11 11 12 12 12 12 12 11 11 11 11 10 11 11 11 11 10 10 10 10 10 10 10 10 10 10 10 10 10 10 10 10
9 9 10 10 10 10 10 10 10 10 11 11 11 11 11 11 11 11 11 10 10 10 11 11 11 11 10 10 10 10 10 10 10 10 10 10 10 10 10 10 10 10
9 9 9 9 9 9 9 9 9 10 10 10 10 10 10 10 10 10 10 10 10 10 10 10 10 10 10 10 10 10 10 10 10 10 10 10 10 10 10 10 9 9
8 9 9 9 9 9 9 9 9 9 10 10 10 10 10 10 10 10 10 10 10 10 10 10 10 10 10 10 10 10 10 10 10 10 10 10 10 10 9 9 9 9
8 8 9 9 9 9 9 9 9 9 9 9 10 9 9 9 10 10 10 9 9 9 9 10 10 10 10 10 10 10 10 10 10 10 10 10 9 9 9 9 9 8
7 8 8 8 8 8 8 8 8 8 8 9 9 9 9 9 9 9 9 9 9 9 9 9 9 9 9 9 9 9 9 9 9 10 9 9 9 9 9 9 9 8
7 7 7 7 7 7 8 8 8 8 8 8 8 8 8 9 9 9 9 9 9 9 9 9 9 9 9 9 9 9 9 9 9 9 9 9 9 9 9 9 9 9
7 8 8 8 8 7 8 8 8 8 8 8 8 8 8 9 9 9 9 9 9 9 9 9 9 9 9 9 9 9 9 9 9 9 9 9 9 9 9 9 9 9
Height
1526 1528 1529 1529 1530 1531 1532 1533 1534 1535 1536 1537 1538 1539 1539 1540 1541 1542 1543 1544 1544 1545 1545 1545 1544 1545 1545 1546 1547 1548 1549 1549 1550 1550 1551 1551 1551 1552 1552 1552 1553 1553
1525 1527 1528 1529 1530 1532 1533 1534 1535 1536 1537 1537 1538 1539 1540 1541 1542 1543 1544 1545 1545 1546 1546 1546 1546 1546 1546 1547 1547 1548 1549 1550 1550 1551 1552 1552 1552 1552 1553 1553 1553 1554
1524 1526 1528 1529 1530 1532 1533 1534 1535 1537 1538 1538 1539 1540 1541 1542 1543 1544 1545 1546 1546 1547 1547 1547 1548 1547 1547 1547 1548 1549 1549 1550 1551 1552 1552 1553 1553 1553 1553 1554 1554 1554
1523 1525 1527 1529 1530 1532 1533 1534 1536 1537 1538 1538 1539 1540 1541 1542 1543 1544 1545 1546 1547 1547 1548 1548 1548 1548 1548 1549 1549 1549 1550 1551 1551 1552 1552 1553 1554 1554 1554 1555 1555 1555
1522 1524 1526 1528 1530 1531 1533 1534 1536 1537 1538 1539 1539 1540 1542 1542 1543 1544 1545 1546 1547 1548 1549 1549 1549 1549 1549 1549 1550 1550 1551 1551 1552 1552 1553 1554 1554 1555 1555 1556 1556 1556
1521 1523 1525 1528 1529 1531 1533 1535 1536 1538 1538 1539 1540 1541 1542 1543 1543 1544 1545 1546 1547 1548 1549 1549 1549 1550 1550 1550 1551 1552 1552 1552 1553 1553 1554 1555 1555 1556 1557 1557 1557 1557
1521 1523 1525 1527 1529 1531 1533 1535 1536 1537 1538 1539 1540 1541 1542 1543 1544 1544 1545 1546 1547 1548 1549 1550 1550 1550 1551 1552 1552 1553 1553 1553 1554 1554 1555 1556 1556 1557 1558 1558 1558 1558
1520 1522 1525 1527 1529 1531 1533 1535 1536 1537 1538 1539 1540 1541 1542 1543 1544 1545 1546 1547 1547 1548 1549 1550 1551 1551 1552 1553 1553 1554 1554 1554 1555 1556 1556 1557 1557 1558 1558 1558 1559 1559
1518 1521 1524 1526 1528 1530 1533 1534 1536 1537 1538 1539 1540 1541 1542 1544 1545 1545 1546 1547 1548 1548 1549 1550 1551 1552 1553 1553 1554 1555 1555 1556 1556 1557 1558 1558 1559 1559 1559 1559 1559 1560
1518 1520 1523 1526 1528 1530 1532 1534 1536 1537 1538 1539 1540 1542 1543 1544 1545 1546 1546 1547 1548 1548 1549 1550 1551 1552 1553 1553 1554 1555 1556 1557 1557 1558 1559 1559 1559 1559 1559 1559 1559 1560
1517 1519 1522 1525 1527 1530 1531 1533 1536 1537 1538 1539 1541 1542 1543 1544 1545 1546 1546 1547 1548 1548 1549 1550 1551 1552 1553 1554 1554 1555 1556 1557 1558 1558 1559 1559 1560 1560 1560 1560 1560 1561
1516 1518 1520 1523 1526 1529 1530 1532 1535 1536 1537 1539 1540 1541 1542 1543 1544 1545 1546 1547 1548 1548 1549 1550 1551 1552 1553 1554 1555 1555 1556 1557 1558 1558 1559 1559 1559 1560 1560 1560 1561 1561
1516 1518 1519 1521 1525 1528 1530 1531 1534 1536 1537 1538 1539 1540 1541 1542 1543 1544 1545 1546 1547 1548 1549 1551 1551 1552 1553 1554 1554 1555 1556 1557 1557 1558 1558 1559 1559 1559 1560 1560 1561 1561
1516 1518 1520 1521 1525 1528 1530 1531 1533 1535 1536 1537 1538 1539 1540 1541 1542 1543 1545 1546 1547 1548 1549 1550 1551 1552 1553 1553 1554 1555 1556 1556 1557 1558 1558 1558 1559 1559 1559 1560 1560 1561
1514 1517 1518 1520 1523 1525 1527 1530 1532 1534 1535 1536 1537 1538 1539 1540 1541 1542 1543 1545 1546 1547 1548 1549 1550 1551 1552 1553 1554 1554 1555 1556 1557 1557 1557 1558 1558 1558 1559 1559 1559 1560
1513 1515 1516 1518 1520 1522 1525 1528 1530 1532 1533 1534 1535 1537 1538 1539 1540 1541 1542 1544 1545 1546 1547 1548 1549 1550 1551 1552 1553 1554 1555 1555 1556 1556 1557 1557 1557 1557 1558 1558 1558 1559
1513 1514 1516 1517 1519 1521 1524 1526 1528 1530 1531 1533 1534 1535 1537 1538 1539 1540 1541 1543 1544 1545 1546 1547 1548 1549 1550 1551 1552 1553 1553 1554 1554 1555 1555 1555 1556 1556 1557 1557 1557 1557
1514 1514 1515 1517 1519 1521 1523 1525 1527 1529 1530 1531 1532 1534 1535 1537 1537 1538 1540 1541 1543 1544 1545 1546 1547 1548 1549 1550 1551 1551 1552 1553 1553 1553 1553 1554 1554 1554 1555 1555 1555 1555
1515 1515 1516 1518 1520 1522 1523 1526 1527 1529 1530 1531 1532 1533 1535 1536 1537 1538 1539 1540 1542 1543 1544 1545 1546 1547 1548 1549 1550 1550 1551 1551 1551 1552 1552 1552 1552 1552 1552 1552 1552 1552
1515 1516 1517 1518 1520 1521 1524 1525 1526 1528 1530 1531 1532 1533 1534 1535 1536 1536 1537 1539 1540 1542 1543 1544 1545 1546 1547 1548 1548 1549 1549 1549 1550 1550 1550 1550 1550 1550 1550 1549 1549 1549
1516 1517 1517 1518 1519 1522 1524 1524 1525 1527 1529 1531 1532 1532 1533 1534 1535 1535 1536 1538 1539 1540 1541 1542 1543 1544 1545 1546 1546 1547 1547 1548 1548 1548 1548 1548 1548 1548 1547 1547 1547 1548
1515 1516 1516 1517 1519 1520 1523 1524 1525 1528 1529 1529 1530 1530 1531 1534 1535 1535 1536 1536 1537 1538 1540 1541 1541 1542 1543 1543 1544 1544 1545 1545 1545 1545 1546 1546 1546 1546 1546 1546 1546 1547
1515 1515 1516 1517 1518 1519 1521 1522 1524 1526 1527 1527 1528 1529 1530 1532 1534 1535 1535 1535 1537 1538 1539 1539 1539 1540 1541 1541 1541 1542 1542 1542 1543 1543 1543 1543 1543 1544 1544 1545 1545 1546
1516 1516 1517 1517 1518 1519 1520 1521 1522 1524 1525 1525 1526 1527 1528 1529 1531 1532 1532 1533 1535 1536 1536 1536 1537 1538 1538 1538 1539 1539 1539 1539 1539 1540 1540 1540 1541 1542 1543 1543 1544 1545
1518 1518 1518 1518 1519 1520 1520 1521 1522 1522 1523 1524 1524 1525 1525 1527 1528 1529 1530 1531 1532 1533 1533 1533 1534 1534 1535 1535 1536 1536 1536 1536 1536 1537 1537 1538 1539 1540 1541 1542 1543 1544
1519 1519 1519 1519 1520 1520 1520 1521 1521 1522 1522 1523 1523 1523 1524 1525 1526 1527 1528 1529 1530 1531 1531 1531 1531 1532 1532 1532 1533 1533 1533 1534 1534 1535 1535 1536 1537 1538 1539 1540 1541 1542
Wind_Speed
16 14 12 12 12 11 10 10 9 7 6 5 5 5 7 10 10 9 8 7 5 3 3 7 8 9 11 12 13 12 12 11 9 9 8 9 8 8 8 7 6 7
17 14 13 13 13 12 10 10 9 9 8 8 8 7 7 9 10 10 8 8 6 4 4 6 8 8 10 13 14 14 13 12 11 10 9 8 8 8 7 7 7 8
17 15 13 13 13 13 12 11 11 10 9 10 11 9 8 8 10 11 10 9 7 5 4 5 7 8 9 11 13 13 13 12 12 11 10 10 8 7 7 7 8 9
19 17 14 13 13 13 13 13 12 10 8 9 11 11 9 9 10 11 11 10 8 6 4 4 6 8 8 9 11 11 10 10 10 11 12 12 10 8 7 8 10 11
20 17 15 14 13 14 14 13 12 9 8 8 10 11 10 10 11 11 11 10 8 6 5 5 7 9 9 10 10 10 10 9 9 9 10 11 11 11 9 8 9 11
20 18 16 14 14 15 14 13 11 8 8 9 11 11 11 12 12 12 11 10 9 7 6 7 9 11 12 12 12 12 11 11 10 10 10 12 14 14 12 9 8 9
20 19 17 15 14 15 14 13 10 8 9 10 11 11 11 12 13 13 12 11 10 9 9 10 12 13 13 13 13 13 13 13 12 11 10 12 14 15 14 12 10 9
22 20 17 15 15 15 15 13 10 9 10 10 11 10 11 12 14 14 13 12 12 13 13 13 14 14 14 13 13 12 13 12 12 11 11 11 13 14 14 13 12 11
23 20 18 16 16 16 15 13 11 10 9 9 9 10 12 13 15 16 15 14 15 16 16 15 15 15 14 13 13 11 11 10 10 10 9 9 10 10 11 12 12 12
24 22 19 17 17 18 16 14 13 10 8 9 11 12 13 15 17 17 17 17 18 18 18 17 16 16 15 13 12 11 10 10 10 9 8 8 8 7 8 9 10 11
26 25 21 19 20 19 17 16 14 10 9 10 11 12 13 15 17 18 18 19 19 18 18 18 17 16 14 13 12 11 10 10 10 9 7 7 7 7 8 9 9 10
28 27 24 23 23 20 18 18 16 13 13 12 12 12 13 15 17 18 18 18 19 18 18 17 16 15 13 12 12 11 11 11 9 8 7 6 6 7 8 9 9 10
28 26 24 25 26 23 20 19 18 18 16 15 14 13 14 15 17 18 18 18 19 18 17 16 15 14 13 12 11 11 12 12 10 9 8 7 8 8 9 10 10 10
26 23 22 26 27 26 25 24 23 22 19 18 18 18 17 16 16 18 19 19 19 18 16 16 16 15 13 11 10 10 12 13 13 12 10 10 10 11 12 12 12 12
25 24 25 27 26 28 32 29 25 23 21 20 20 21 21 20 18 19 21 21 20 19 18 17 17 16 14 12 11 10 11 13 14 14 14 13 13 13 14 15 16 16
23 24 24 24 24 28 32 30 25 24 22 22 22 22 24 24 22 21 22 22 22 21 20 19 18 17 15 14 12 12 12 14 15 16 17 17 16 16 16 17 18 19
21 22 23 24 25 27 29 28 26 26 25 23 24 25 26 26 24 22 23 23 22 22 21 20 19 18 16 15 14 14 14 15 16 17 19 20 20 19 19 19 19 21
20 22 24 24 24 24 25 25 24 24 24 23 23 24 25 26 24 23 23 23 22 22 22 21 20 19 17 16 16 15 16 17 17 19 20 21 22 22 21 21 21 22
18 20 20 20 20 21 21 21 20 21 21 21 20 21 23 24 23 23 24 24 23 22 22 21 20 19 18 18 18 18 18 19 19 19 20 21 22 23 23 23 24 24
17 19 19 19 20 20 20 20 20 20 20 20 19 19 22 22 22 24 26 25 24 23 21 21 20 19 19 19 19 19 19 20 20 20 20 20 22 24 25 25 25 24
11 15 18 18 18 19 20 20 20 19 20 20 20 22 23 23 24 24 25 25 26 25 23 22 20 20 20 20 20 20 20 20 21 21 21 22 23 25 25 23 21 20
6 8 13 14 14 14 16 17 16 16 18 20 21 23 22 23 24 24 24 26 27 25 24 23 22 22 22 22 22 22 22 22 22 22 23 23 24 24 22 20 18 17
6 6 8 9 9 9 9 10 11 13 15 18 20 21 19 17 19 22 23 23 22 20 20 21 21 21 22 22 22 22 22 23 23 24 24 23 22 21 20 18 17 17
8 6 6 7 7 7 7 8 9 10 11 12 14 15 14 12 13 16 18 18 17 16 18 19 19 19 20 21 22 22 23 23 23 23 22 21 21 20 19 19 18 17
11 9 8 8 8 7 6 6 6 7 8 9 9 8 8 9 10 12 14 15 15 15 17 17 18 19 20 21 22 22 22 22 21 21 21 20 21 21 20 20 19 17
8 8 8 8 8 7 6 5 4 4 5 7 8 8 8 8 9 10 11 12 13 14 15 16 17 18 18 19 19 19 19 19 19 20 21 21 22 22 22 21 20 19
Wind_Direction
209 217 216 202 194 195 197 194 193 191 180 174 188 198 192 190 189 192 206 216 236 250 173 149 151 164 174 177 178 179 179 181 178 173 178 183 184 182 177 175 173 173
209 214 212 202 197 200 204 203 202 198 183 172 180 187 183 192 199 201 213 225 235 234 169 144 147 152 165 177 182 184 183 184 179 173 180 185 184 188 185 177 169 166
208 208 206 204 204 206 209 209 203 199 193 177 171 177 182 192 203 207 216 228 233 224 181 155 153 146 148 164 176 185 188 189 188 185 189 191 191 197 191 179 172 163
205 205 205 207 210 212 212 205 196 197 207 191 170 173 182 189 201 208 215 224 228 220 194 166 157 151 146 149 160 171 176 179 183 186 193 197 196 191 182 177 173 164
200 203 206 211 215 216 211 201 195 197 203 196 178 174 184 189 195 203 208 214 216 213 199 171 159 157 154 150 149 151 151 154 158 166 180 187 182 174 173 177 175 168
197 202 206 213 216 214 207 198 195 191 180 180 177 176 184 188 189 194 200 203 202 198 188 169 159 156 154 150 147 143 140 140 142 150 164 170 169 170 172 180 180 168
193 200 205 210 212 209 202 193 186 174 166 171 174 174 181 185 185 187 194 197 189 177 171 164 158 154 151 149 147 146 144 142 142 147 157 165 172 176 178 183 186 171
191 196 201 203 206 202 193 186 178 165 162 168 173 175 179 183 183 181 186 192 180 167 164 164 161 156 153 152 153 154 153 151 151 152 156 164 172 181 185 189 193 187
190 190 195 200 200 192 185 185 181 167 162 166 172 179 181 182 182 178 180 183 176 168 166 167 166 163 162 163 164 167 168 165 166 166 168 170 170 176 184 191 198 201
189 184 188 192 189 184 184 187 183 171 166 169 172 180 185 185 184 180 178 180 178 175 173 172 174 174 174 177 179 183 186 185 185 185 188 193 190 185 188 193 201 207
188 183 182 182 183 188 188 183 181 178 175 176 180 188 193 193 190 186 184 184 183 182 180 178 181 183 186 190 193 199 203 203 202 199 200 209 213 211 210 208 210 216
190 183 179 178 183 189 183 174 176 180 180 187 195 198 200 201 200 196 194 194 192 190 190 189 190 195 200 203 206 213 218 218 215 213 217 228 234 236 231 221 218 226
193 186 181 182 186 187 183 181 184 187 192 200 201 199 205 209 209 207 205 204 203 200 200 201 202 206 210 213 217 223 227 227 225 226 232 240 247 252 248 237 231 233
197 197 198 198 197 196 195 193 195 201 209 209 198 197 207 217 220 217 214 211 209 207 208 209 212 215 216 216 221 226 231 232 231 232 236 242 248 253 252 248 246 247
197 202 207 208 206 202 198 197 202 210 212 204 199 201 208 216 225 224 219 214 210 208 211 213 214 218 221 220 223 232 237 236 234 234 237 242 248 250 249 248 250 253
195 198 201 203 200 196 196 201 210 211 204 199 204 211 213 216 224 225 220 216 213 211 213 215 218 221 225 228 233 245 250 246 243 243 244 246 249 249 248 247 249 252
190 190 194 195 193 194 200 208 214 214 212 212 214 216 218 221 224 224 221 219 220 220 220 221 223 225 229 233 239 249 254 252 252 254 254 252 252 254 253 252 252 253
188 189 191 191 192 197 203 207 211 215 218 218 217 216 218 221 221 221 221 222 224 227 229 230 231 232 233 237 244 250 253 254 256 259 259 256 256 257 258 257 259 260
193 196 196 197 201 206 209 211 216 221 220 217 217 219 219 219 220 221 223 225 226 229 232 234 234 236 238 242 248 251 253 256 259 260 260 259 259 260 260 260 263 262
202 204 206 210 213 214 217 219 220 220 219 217 220 222 220 218 219 221 224 226 229 231 234 236 238 240 243 247 251 253 255 257 260 261 263 265 266 265 264 264 264 259
200 206 211 218 221 220 219 220 218 215 215 219 224 225 222 219 221 224 225 228 231 232 234 237 241 243 246 249 253 256 257 258 260 261 265 268 269 268 266 263 258 247
151 184 196 206 216 218 216 219 222 221 223 227 228 228 226 221 222 228 231 233 235 235 235 238 240 243 247 250 254 256 256 256 258 261 265 268 265 262 259 253 244 232
117 149 166 173 184 189 189 195 201 209 221 228 229 231 231 223 221 229 237 240 242 242 241 241 243 245 248 251 253 254 254 255 258 262 266 264 255 248 244 238 232 225
100 112 123 136 150 152 154 167 173 179 197 212 222 229 232 230 229 235 241 246 248 247 246 247 247 249 251 252 253 254 255 256 258 260 259 251 240 235 231 228 227 224
97 102 105 110 117 120 130 153 164 169 180 190 200 210 217 224 231 236 242 247 248 248 250 251 251 252 252 253 254 254 255 255 253 250 245 237 231 229 227 224 223 222
103 107 108 107 109 109 113 127 146 166 184 192 197 201 204 211 221 229 237 245 248 248 249 252 254 254 254 253 252 251 249 246 242 238 235 231 228 227 227 227 226 224